World > North America > United States > South Dakota > Egan  

Egan, SD Hourly Weather Updates

Feedback E-mail the Weather

Quick Clicks

Egan, SD Weather Maps

°F °C°F °C
Egan Weather Map
UTC Time: 6/24/2024, 04:16
Your Time:

Egan, SD Regional Weather

Expires:202406240500;;558008
ASUS43 KFSD 240410
RWRFSD

WEATHER ROUNDUP FOR SE SOUTH DAKOTA/SW MINNESOTA/NW IOWA
NATIONAL WEATHER SERVICE SIOUX FALLS SD
1100 PM CDT SUN JUN 23 2024

NOTE: "FAIR" INDICATES FEW OR NO CLOUDS BELOW 12,000 FEET WITH NO
SIGNIFICANT WEATHER AND OR OBSTRUCTIONS TO VISIBILITY.



SDZ038>040-050-052>070-240500-
SOUTHEAST SOUTH DAKOTA
  
CITY           SKY/WX    TMP DP  RH WIND       PRES   REMARKS
BROOKINGS      PTCLDY    72  65  78 SE8       29.88S TC  22           
CHAMBERLAIN    CLEAR     75  70  84 E8        29.79S TC  24           
HURON          CLEAR     77  67  71 SE9       29.82R TC  25           
MADISON          N/A     72  72 100 E7        29.87R TC  22           
MITCHELL       CLEAR     76  69  79 SE10      29.81S TC  24           
SIOUX FALLS    MOCLDY    77  68  73 E8        29.86R TC  25           
WINNER         CLEAR     77  74  90 E8        29.79R TC  25           
YANKTON          N/A     77  70  79 E6        29.83S TC  25           
$$


SKY/WX - Weather  TMP - Temperature  DP - Dew Point  RH - Humidity
WIND - Wind Direction/Speed PRES - Barometric Pressure VSB - Visibility
WCI - Wind Chill Index E13G22 Wind - East Wind 13 mph/Gusts of 22 mph

Trending Headlines

Trending Entertainment Headlines

Egan Radar Loop

Use the map search tool if you want to place a location marker on the radar map...

Egan Quick Facts

National Two Day Weather Forecast


E-mail the Egan Weather Forecast

Voice your opinion or tell us about page issues...